Regional Weather Roundup
Issued by NWS

Home | Current Version | Previous Version | Graphics & Text | Print | Product List | Glossary On
Versions: 1 2 3 4 5 6 7 8 9 10 11 12 13 14 15 16 17 18 19 20 21 22 23 24 25 26 27 28 29 30 31 32 33 34 35 36 37 38 39 40 41 42 43 44 45 46 47 48 49 50
000
ASUS43 KLMK 291710
RWRKY
KENTUCKY REGIONAL WEATHER ROUNDUP
NATIONAL WEATHER SERVICE LOUISVILLE KY
100 PM EDT WED JUL 29 2015

NOTE "FAIR" INDICATES FEW OR NO CLOUDS BELOW 12,000 FEET
WITH NO SIGNIFICANT WEATHER AND/OR OBSTRUCTIONS TO VISIBILITY.

KYZ001>023-026-027-061>063-070>075-291800-
WESTERN AND SOUTH CENTRAL KENTUCKY

CITY           SKY/WX    TMP DP  RH WIND       PRES   REMARKS
PADUCAH        SUNNY     94  78  60 NW6       29.99F HX 110
HENDERSON      MOSUNNY   90  79  70 SW6       29.98S HX 105
OWENSBORO      MOSUNNY   91  78  65 VRB3      30.00F HX 105
HOPKINSVILLE   CLOUDY    77  74  92 SW6       30.02F
BOWLING GREEN  MOSUNNY   89  75  63 W3        30.02F HX  99
GLASGOW        MOSUNNY  N/A N/A N/A W5        30.04R
$$

KYZ024-025-028>034-038-045-046-053-291800-
NORTH CENTRAL KENTUCKY

CITY           SKY/WX    TMP DP  RH WIND       PRES   REMARKS
LOUISVILLE/SDF PTSUNNY   90  76  63 SW7       29.98F HX 101
LOUISVILLE/LOU MOSUNNY   89  75  63 W5        29.99F HX  99
FORT KNOX      MOSUNNY   87  77  70 VRB1      30.00S HX  98
$$

KYZ035>037-039>044-047>052-055>060-089>105-291800-
NORTHEAST KENTUCKY

CITY           SKY/WX    TMP DP  RH WIND       PRES   REMARKS
LEXINGTON      SUNNY     87  76  69 SW6       30.02S HX  97
COVINGTON      PTSUNNY   86  77  74 N5        29.99F HX  97
FRANKFORT      PTSUNNY   88  75  65 SW5       30.00S HX  97
$$

KYZ054-064>069-076>088-106>120-291800-
SOUTHEAST KENTUCKY

CITY           SKY/WX    TMP DP  RH WIND       PRES   REMARKS
JACKSON        MOSUNNY   84  73  69 CALM      30.05F HX  90
LONDON         CLOUDY    80  71  74 SW6       30.07R
SOMERSET       CLOUDY    79  75  89 SE3       30.07R FOG
MIDDLESBORO    MOSUNNY   85  74  68 CALM      30.06F HX  92
MONTICELLO     MOSUNNY   89  77  67 CALM      30.07S HX 101
$$



USA.gov is the U.S. government's official web portal to all federal, state and local government web resources and services.